Time,TemperatureF,DewpointF,PressureIn,WindDirection,WindDirectionDegrees,WindSpeedMPH,WindSpeedGustMPH,Humidity,HourlyPrecipIn,Conditions,Clouds,dailyrainin,SolarRadiationWatts/m^2,SoftwareType,DateUTC
2013-01-30 00:11:00,70.0,70.0,-100.00,South,170,11.0,20.0,100,0.00,,,0.02,0.000000,,2013-01-30 06:11:00,
2013-01-30 00:21:00,70.0,70.0,-100.00,South,170,11.0,20.0,100,0.00,,,0.02,0.000000,,2013-01-30 06:21:00,
2013-01-30 00:32:00,70.0,70.0,-100.00,South,170,11.0,20.0,100,0.00,,,0.02,0.000000,,2013-01-30 06:32:00,
2013-01-30 00:42:00,70.0,70.0,-100.00,South,170,11.0,20.0,100,0.00,,,0.02,0.000000,,2013-01-30 06:42:00,
2013-01-30 00:51:00,71.0,71.0,-100.00,South,173,11.0,22.0,100,0.00,,,0.02,0.000000,,2013-01-30 06:51:00,
2013-01-30 01:11:00,71.0,71.0,-100.00,South,173,11.0,22.0,100,0.00,,,0.02,0.000000,,2013-01-30 07:11:00,
2013-01-30 01:21:00,71.0,71.0,-100.00,South,173,11.0,22.0,100,0.00,,,0.02,0.000000,,2013-01-30 07:21:00,
2013-01-30 01:32:00,71.0,71.0,-100.00,South,173,11.0,22.0,100,0.00,,,0.02,0.000000,,2013-01-30 07:32:00,
2013-01-30 01:41:00,71.0,71.0,-100.00,South,173,11.0,22.0,100,0.00,,,0.02,0.000000,,2013-01-30 07:41:00,
2013-01-30 01:51:00,70.0,70.0,-100.00,South,172,10.0,20.0,100,0.00,,,0.02,0.000000,,2013-01-30 07:51:00,
2013-01-30 02:21:00,70.0,70.0,-100.00,South,172,10.0,20.0,100,0.00,,,0.02,0.000000,,2013-01-30 08:21:00,
2013-01-30 02:32:00,70.0,70.0,-100.00,South,172,10.0,20.0,100,0.00,,,0.02,0.000000,,2013-01-30 08:32:00,
2013-01-30 02:42:00,70.0,70.0,-100.00,South,172,10.0,20.0,100,0.00,,,0.02,0.000000,,2013-01-30 08:42:00,
2013-01-30 02:51:00,71.0,71.0,-100.00,South,177,12.0,25.0,100,0.00,,,0.02,0.000000,,2013-01-30 08:51:00,
2013-01-30 03:11:00,71.0,71.0,-100.00,South,177,12.0,25.0,100,0.00,,,0.02,0.000000,,2013-01-30 09:11:00,
2013-01-30 03:21:00,71.0,71.0,-100.00,South,177,12.0,25.0,100,0.00,,,0.02,0.000000,,2013-01-30 09:21:00,
2013-01-30 03:32:00,71.0,71.0,-100.00,South,177,12.0,25.0,100,0.00,,,0.02,0.000000,,2013-01-30 09:32:00,
2013-01-30 03:42:00,71.0,71.0,-100.00,South,177,12.0,25.0,100,0.00,,,0.02,0.000000,,2013-01-30 09:42:00,
2013-01-30 03:51:00,71.0,71.0,-100.00,South,175,12.0,25.0,100,0.00,,,0.02,0.000000,,2013-01-30 09:51:00,
2013-01-30 04:11:00,71.0,71.0,-100.00,South,175,12.0,25.0,100,0.00,,,0.02,0.000000,,2013-01-30 10:11:00,
2013-01-30 04:21:00,71.0,71.0,-100.00,South,175,12.0,25.0,100,0.00,,,0.02,0.000000,,2013-01-30 10:21:00,
2013-01-30 04:32:00,71.0,71.0,-100.00,South,175,12.0,25.0,100,0.00,,,0.02,0.000000,,2013-01-30 10:32:00,
2013-01-30 04:42:00,71.0,71.0,-100.00,South,175,12.0,25.0,100,0.00,,,0.02,0.000000,,2013-01-30 10:42:00,
2013-01-30 04:51:00,71.0,71.0,-100.00,South,180,9.0,27.0,100,0.00,,,0.02,0.000000,,2013-01-30 10:51:00,
2013-01-30 05:11:00,71.0,71.0,-100.00,South,180,9.0,27.0,100,0.00,,,0.02,0.000000,,2013-01-30 11:11:00,
2013-01-30 05:22:00,71.0,71.0,-100.00,South,180,9.0,27.0,100,0.00,,,0.02,0.000000,,2013-01-30 11:22:00,
2013-01-30 05:33:00,71.0,71.0,-100.00,South,180,9.0,27.0,100,0.00,,,0.02,0.000000,,2013-01-30 11:33:00,
2013-01-30 05:42:00,71.0,71.0,-100.00,South,180,9.0,27.0,100,0.00,,,0.02,0.000000,,2013-01-30 11:42:00,
2013-01-30 06:12:00,71.0,71.0,-100.00,South,175,12.0,26.0,99,0.00,,,0.02,0.000000,,2013-01-30 12:12:00,
2013-01-30 06:22:00,71.0,71.0,-100.00,South,175,12.0,26.0,99,0.00,,,0.02,0.000000,,2013-01-30 12:22:00,
2013-01-30 06:33:00,71.0,71.0,-100.00,South,175,12.0,26.0,99,0.00,,,0.02,0.000000,,2013-01-30 12:33:00,
2013-01-30 06:42:00,71.0,71.0,-100.00,South,175,12.0,26.0,99,0.00,,,0.02,0.000000,,2013-01-30 12:42:00,
2013-01-30 06:51:00,71.0,71.0,-100.00,South,174,11.0,25.0,99,0.00,,,0.02,0.000000,,2013-01-30 12:51:00,
2013-01-30 07:12:00,71.0,71.0,-100.00,South,174,11.0,25.0,99,0.00,,,0.02,0.000000,,2013-01-30 13:12:00,
2013-01-30 07:23:00,71.0,71.0,-100.00,South,174,11.0,25.0,99,0.00,,,0.02,0.000000,,2013-01-30 13:23:00,
2013-01-30 07:33:00,71.0,71.0,-100.00,South,174,11.0,25.0,99,0.00,,,0.02,0.000000,,2013-01-30 13:33:00,
2013-01-30 07:42:00,71.0,71.0,-100.00,South,174,11.0,25.0,99,0.00,,,0.02,0.000000,,2013-01-30 13:42:00,
2013-01-30 07:51:00,71.0,70.0,-100.00,South,186,11.0,25.0,98,0.00,,,0.02,12.000000,,2013-01-30 13:51:00,
2013-01-30 08:23:00,71.0,70.0,-100.00,South,186,11.0,25.0,98,0.00,,,0.02,12.000000,,2013-01-30 14:23:00,
2013-01-30 08:33:00,71.0,70.0,-100.00,South,186,11.0,25.0,98,0.00,,,0.02,12.000000,,2013-01-30 14:33:00,
2013-01-30 08:42:00,71.0,70.0,-100.00,South,186,11.0,25.0,98,0.00,,,0.02,12.000000,,2013-01-30 14:42:00,
2013-01-30 08:51:00,71.0,70.0,-100.00,South,186,12.0,28.0,97,0.00,,,0.02,47.000000,,2013-01-30 14:51:00,
2013-01-30 09:12:00,71.0,70.0,-100.00,South,186,12.0,28.0,97,0.00,,,0.02,47.000000,,2013-01-30 15:12:00,
2013-01-30 09:23:00,71.0,70.0,-100.00,South,186,12.0,28.0,97,0.00,,,0.02,47.000000,,2013-01-30 15:23:00,
2013-01-30 09:33:00,71.0,70.0,-100.00,South,186,12.0,28.0,97,0.00,,,0.02,47.000000,,2013-01-30 15:33:00,
2013-01-30 09:43:00,71.0,70.0,-100.00,South,186,12.0,28.0,97,0.00,,,0.02,47.000000,,2013-01-30 15:43:00,
2013-01-30 09:51:00,72.0,70.0,-100.00,SSW,194,13.0,27.0,94,0.00,,,0.02,81.000000,,2013-01-30 15:51:00,
2013-01-30 10:23:00,72.0,70.0,-100.00,SSW,194,13.0,27.0,94,0.00,,,0.02,81.000000,,2013-01-30 16:23:00,
2013-01-30 10:32:00,72.0,70.0,-100.00,SSW,194,13.0,27.0,94,0.00,,,0.02,81.000000,,2013-01-30 16:32:00,
2013-01-30 10:42:00,72.0,70.0,-100.00,SSW,194,13.0,27.0,94,0.00,,,0.02,81.000000,,2013-01-30 16:42:00,
2013-01-30 10:51:00,62.0,61.0,-100.00,NW,318,9.0,26.0,97,0.14,,,0.16,91.000000,,2013-01-30 16:51:00,
2013-01-30 11:23:00,62.0,61.0,-100.00,NW,318,9.0,26.0,97,0.14,,,0.16,91.000000,,2013-01-30 17:23:00,
2013-01-30 11:33:00,62.0,61.0,-100.00,NW,318,9.0,26.0,97,0.14,,,0.16,91.000000,,2013-01-30 17:33:00,
2013-01-30 11:42:00,62.0,61.0,-100.00,NW,318,9.0,26.0,97,0.14,,,0.16,91.000000,,2013-01-30 17:42:00,
2013-01-30 11:51:00,55.0,54.0,-100.00,NNW,335,7.0,14.0,98,0.23,,,-99.99,39.000000,,2013-01-30 17:51:00,
2013-01-30 12:12:00,55.0,54.0,-100.00,NNW,335,7.0,14.0,98,0.23,,,-99.99,39.000000,,2013-01-30 18:12:00,
2013-01-30 12:23:00,55.0,54.0,-100.00,NNW,335,7.0,14.0,98,0.23,,,-99.99,39.000000,,2013-01-30 18:23:00,
2013-01-30 12:33:00,55.0,54.0,-100.00,NNW,335,7.0,14.0,98,0.23,,,-99.99,39.000000,,2013-01-30 18:33:00,
2013-01-30 12:42:00,55.0,54.0,-100.00,NNW,335,7.0,14.0,98,0.23,,,-99.99,39.000000,,2013-01-30 18:42:00,
2013-01-30 12:51:00,53.0,53.0,-100.00,NW,304,3.0,14.0,100,0.21,,,0.60,85.000000,,2013-01-30 18:51:00,
2013-01-30 13:12:00,53.0,53.0,-100.00,NW,304,3.0,14.0,100,0.21,,,0.60,85.000000,,2013-01-30 19:12:00,
2013-01-30 13:22:00,53.0,53.0,-100.00,NW,304,3.0,14.0,100,0.21,,,0.60,85.000000,,2013-01-30 19:22:00,
2013-01-30 13:32:00,53.0,53.0,-100.00,NW,304,3.0,14.0,100,0.21,,,0.60,85.000000,,2013-01-30 19:32:00,
2013-01-30 13:43:00,53.0,53.0,-100.00,NW,304,3.0,14.0,100,0.21,,,0.60,85.000000,,2013-01-30 19:43:00,
2013-01-30 13:51:00,55.0,54.0,-100.00,West,277,4.0,9.0,97,0.03,,,0.63,136.000000,,2013-01-30 19:51:00,
2013-01-30 14:12:00,55.0,54.0,-100.00,West,277,4.0,9.0,97,0.03,,,0.63,136.000000,,2013-01-30 20:12:00,
2013-01-30 14:22:00,55.0,54.0,-100.00,West,277,4.0,9.0,97,0.03,,,0.63,136.000000,,2013-01-30 20:22:00,
2013-01-30 14:33:00,55.0,54.0,-100.00,West,277,4.0,9.0,97,0.03,,,0.63,136.000000,,2013-01-30 20:33:00,
2013-01-30 14:42:00,55.0,54.0,-100.00,West,277,4.0,9.0,97,0.03,,,0.63,136.000000,,2013-01-30 20:42:00,
2013-01-30 14:51:00,58.0,54.0,-100.00,West,274,5.0,10.0,87,0.00,,,0.63,175.000000,,2013-01-30 20:51:00,
2013-01-30 15:23:00,58.0,54.0,-100.00,West,274,5.0,10.0,87,0.00,,,0.63,175.000000,,2013-01-30 21:23:00,
2013-01-30 15:32:00,58.0,54.0,-100.00,West,274,5.0,10.0,87,0.00,,,0.63,175.000000,,2013-01-30 21:32:00,
2013-01-30 15:42:00,58.0,54.0,-100.00,West,274,5.0,10.0,87,0.00,,,0.63,175.000000,,2013-01-30 21:42:00,
2013-01-30 15:51:00,57.0,53.0,-100.00,West,277,4.0,16.0,87,0.00,,,0.63,67.000000,,2013-01-30 21:51:00,
2013-01-30 16:12:00,57.0,53.0,-100.00,West,277,4.0,16.0,87,0.00,,,0.63,67.000000,,2013-01-30 22:12:00,
2013-01-30 16:22:00,57.0,53.0,-100.00,West,277,4.0,16.0,87,0.00,,,0.63,67.000000,,2013-01-30 22:22:00,
2013-01-30 16:32:00,57.0,53.0,-100.00,West,277,4.0,16.0,87,0.00,,,0.63,67.000000,,2013-01-30 22:32:00,
2013-01-30 16:42:00,57.0,53.0,-100.00,West,277,4.0,16.0,87,0.00,,,0.63,67.000000,,2013-01-30 22:42:00,
2013-01-30 16:51:00,57.0,46.0,-100.00,WNW,284,5.0,15.0,67,0.00,,,0.63,41.000000,,2013-01-30 22:51:00,
2013-01-30 17:22:00,57.0,46.0,-100.00,WNW,284,5.0,15.0,67,0.00,,,0.63,41.000000,,2013-01-30 23:22:00,
2013-01-30 17:32:00,57.0,46.0,-100.00,WNW,284,5.0,15.0,67,0.00,,,0.63,41.000000,,2013-01-30 23:32:00,
2013-01-30 17:42:00,57.0,46.0,-100.00,WNW,284,5.0,15.0,67,0.00,,,0.63,41.000000,,2013-01-30 23:42:00,
2013-01-30 17:51:00,55.0,42.0,-100.00,WNW,303,5.0,14.0,62,0.00,,,0.62,17.000000,,2013-01-30 23:51:00,
2013-01-30 18:22:00,55.0,42.0,-100.00,WNW,303,5.0,14.0,62,0.00,,,0.62,17.000000,,2013-01-31 00:22:00,
2013-01-30 18:32:00,55.0,42.0,-100.00,WNW,303,5.0,14.0,62,0.00,,,0.62,17.000000,,2013-01-31 00:32:00,
2013-01-30 18:42:00,55.0,42.0,-100.00,WNW,303,5.0,14.0,62,0.00,,,0.62,17.000000,,2013-01-31 00:42:00,
2013-01-30 18:51:00,53.0,38.0,-100.00,NW,317,5.0,15.0,57,0.00,,,0.62,0.000000,,2013-01-31 00:51:00,
2013-01-30 19:12:00,53.0,38.0,-100.00,NW,317,5.0,15.0,57,0.00,,,0.62,0.000000,,2013-01-31 01:12:00,
2013-01-30 19:21:00,53.0,38.0,-100.00,NW,317,5.0,15.0,57,0.00,,,0.62,0.000000,,2013-01-31 01:21:00,
2013-01-30 19:32:00,53.0,38.0,-100.00,NW,317,5.0,15.0,57,0.00,,,0.62,0.000000,,2013-01-31 01:32:00,
2013-01-30 19:42:00,53.0,38.0,-100.00,NW,317,5.0,15.0,57,0.00,,,0.62,0.000000,,2013-01-31 01:42:00,
2013-01-30 19:51:00,51.0,38.0,-100.00,NW,323,5.0,14.0,61,0.00,,,0.62,0.000000,,2013-01-31 01:51:00,
2013-01-30 20:21:00,51.0,38.0,-100.00,NW,323,5.0,14.0,61,0.00,,,0.62,0.000000,,2013-01-31 02:21:00,
2013-01-30 20:32:00,51.0,38.0,-100.00,NW,323,5.0,14.0,61,0.00,,,0.62,0.000000,,2013-01-31 02:32:00,
2013-01-30 20:42:00,51.0,38.0,-100.00,NW,323,5.0,14.0,61,0.00,,,0.62,0.000000,,2013-01-31 02:42:00,
2013-01-30 20:51:00,50.0,36.0,-100.00,NNW,339,9.0,25.0,59,0.00,,,0.61,0.000000,,2013-01-31 02:51:00,
2013-01-30 21:11:00,50.0,36.0,-100.00,NNW,339,9.0,25.0,59,0.00,,,0.61,0.000000,,2013-01-31 03:11:00,
2013-01-30 21:21:00,50.0,36.0,-100.00,NNW,339,9.0,25.0,59,0.00,,,0.61,0.000000,,2013-01-31 03:21:00,
2013-01-30 21:32:00,50.0,36.0,-100.00,NNW,339,9.0,25.0,59,0.00,,,0.61,0.000000,,2013-01-31 03:32:00,
2013-01-30 21:41:00,50.0,36.0,-100.00,NNW,339,9.0,25.0,59,0.00,,,0.61,0.000000,,2013-01-31 03:41:00,
2013-01-30 21:51:00,47.0,32.0,-100.00,NNW,345,9.0,23.0,56,0.00,,,0.61,0.000000,,2013-01-31 03:51:00,
2013-01-30 22:22:00,47.0,32.0,-100.00,NNW,345,9.0,23.0,56,0.00,,,0.61,0.000000,,2013-01-31 04:22:00,
2013-01-30 22:32:00,47.0,32.0,-100.00,NNW,345,9.0,23.0,56,0.00,,,0.61,0.000000,,2013-01-31 04:32:00,
2013-01-30 22:41:00,47.0,32.0,-100.00,NNW,345,9.0,23.0,56,0.00,,,0.61,0.000000,,2013-01-31 04:41:00,
2013-01-30 22:51:00,44.0,30.0,-100.00,NNW,341,6.0,27.0,58,0.00,,,0.61,0.000000,,2013-01-31 04:51:00,
2013-01-30 23:11:00,44.0,30.0,-100.00,NNW,341,6.0,27.0,58,0.00,,,0.61,0.000000,,2013-01-31 05:11:00,
2013-01-30 23:22:00,44.0,30.0,-100.00,NNW,341,6.0,27.0,58,0.00,,,0.61,0.000000,,2013-01-31 05:22:00,
2013-01-30 23:32:00,44.0,30.0,-100.00,NNW,341,6.0,27.0,58,0.00,,,0.61,0.000000,,2013-01-31 05:32:00,
2013-01-30 23:41:00,44.0,30.0,-100.00,NNW,341,6.0,27.0,58,0.00,,,0.61,0.000000,,2013-01-31 05:41:00,